This demonstration page uses our WeatherBlox Daily Observations layout. Learn more.

Left ArrowRight Arrow

40.92945, -100.16068

Hourly Observations for April 20, 2021

Temp ( °F °C ) Dew Point ( °F °C ) Humidity (%) Winds ( mph kmh ) Pressure ( in mb ) Visibility ( mi km ) Precip ( " mm )
12:15 am 00:15 Mostly Cloudy 28 -2 26 -3.5 90 90 WNW 6 9 30.33 1027 10 16 N/A
12:35 am 00:35 Mostly Cloudy 29 -1.8 26 -3.2 90 90 WNW 6 9 30.33 1027 10 16 N/A
12:55 am 00:55 Partly Cloudy 28 -2.2 26 -3.5 91 91 W 7 11 30.34 1027 10 16 N/A
1:15 am 01:15 Clear 28 -2.5 26 -3.6 92 92 W 7 11 30.34 1028 10 16 N/A
1:35 am 01:35 Clear 28 -2.5 26 -3.6 92 92 WNW 8 13 30.35 1028 10 16 N/A
1:55 am 01:55 Clear 27 -2.8 25 -4 92 92 WNW 9 15 30.35 1028 10 16 N/A
2:15 am 02:15 Clear 28 -2.4 25 -4.1 88 88 NW 9 15 30.33 1027 10 16 N/A
2:35 am 02:35 Clear 28 -2.3 24 -4.4 86 86 NW 9 15 30.32 1027 10 16 N/A
2:55 am 02:55 Clear 27 -2.6 24 -4.7 86 86 NW 7 11 30.33 1027 10 16 N/A
3:15 am 03:15 Clear 27 -2.7 24 -4.7 86 86 NW 7 11 30.33 1027 10 16 N/A
3:35 am 03:35 Clear 27 -2.8 23 -5 85 85 WNW 7 11 30.34 1027 10 16 N/A
3:55 am 03:55 Partly Cloudy 27 -3 23 -4.8 88 88 WNW 7 11 30.34 1027 10 16 N/A
4:15 am 04:15 Partly Cloudy 26 -3.5 23 -5.1 89 89 WNW 7 11 30.35 1028 10 16 N/A
4:35 am 04:35 Clear 26 -3.6 23 -5.2 89 89 WNW 7 11 30.35 1028 10 16 N/A
4:55 am 04:55 Clear 24 -4.5 22 -5.8 91 91 WNW 7 11 30.36 1028 10 16 N/A
5:15 am 05:15 Clear 23 -5 21 -6.3 91 91 WNW 8 13 30.38 1029 10 16 N/A
5:35 am 05:35 Clear 22 -5.6 20 -6.8 91 91 W 7 11 30.39 1029 10 16 N/A
5:55 am 05:55 Clear 22 -5.5 20 -6.7 91 91 W 8 13 30.38 1029 10 16 N/A
6:15 am 06:15 Clear 22 -5.8 19 -7.1 91 91 W 8 13 30.39 1029 10 16 N/A
6:35 am 06:35 Clear 21 -6.2 19 -7.5 91 91 W 7 11 30.39 1029 10 16 N/A
6:55 am 06:55 Sunny 21 -5.9 19 -7 92 92 WNW 9 15 30.40 1029 10 16 N/A
7:15 am 07:15 Sunny 22 -5.8 19 -7.4 89 89 W 6 9 30.40 1029 10 16 N/A
7:35 am 07:35 Partly Cloudy 22 -5.8 19 -7.2 90 90 W 7 11 30.40 1029 10 16 N/A
7:55 am 07:55 Mostly Cloudy 24 -4.2 21 -6 87 87 WNW 5 7 30.38 1029 10 16 N/A
8:15 am 08:15 Mostly Cloudy 27 -3 22 -5.4 84 84 WNW 6 9 30.37 1028 10 16 0.01 0.25
8:35 am 08:35 Mostly Cloudy 28 -2.2 23 -5.2 80 80 W 9 15 30.36 1028 10 16 0.01 0.25
8:55 am 08:55 Cloudy 29 -1.9 24 -4.7 81 81 WNW 9 15 30.36 1028 10 16 0.01 0.25
9:15 am 09:15 Cloudy 30 -1.2 24 -4.4 79 79 WNW 12 19 30.35 1028 10 16 N/A
9:35 am 09:35 Partly Cloudy 31 -0.5 24 -4.3 76 76 WNW 12 19 30.33 1027 10 16 N/A
9:55 am 09:55 Sunny 31 -0.3 24 -4.5 74 74 WNW 10 17 30.33 1027 10 16 N/A
10:15 am 10:15 Partly Cloudy 32 undefined 25 -3.9 75 75 WNW 10 17 30.32 1027 10 16 N/A
10:35 am 10:35 Partly Cloudy 33 0.8 26 -3.3 74 74 WNW 12 19 30.31 1026 10 16 N/A
10:55 am 10:55 Sunny 35 1.7 27 -2.6 73 73 WNW 10 17 30.30 1026 10 16 N/A
11:15 am 11:15 Sunny 36 2.2 27 -2.7 70 70 WNW 10 17 30.30 1026 10 16 N/A
11:35 am 11:35 Sunny 38 3.3 29 -1.8 70 70 WNW 10 17 30.28 1025 10 16 N/A
11:55 am 11:55 Partly Cloudy 39 4 28 -2 65 65 NW 13 20 30.27 1025 10 16 N/A
12:15 pm 12:15 Mostly Cloudy 39 3.9 28 -2.5 63 63 WNW 14 22 30.27 1025 10 16 N/A
12:35 pm 12:35 Mostly Cloudy 40 4.5 27 -2.7 60 60 W 12 19 30.25 1024 10 16 N/A
12:55 pm 12:55 Cloudy 40 4.6 28 -2.3 61 61 W 14 22 30.24 1024 10 16 N/A
1:15 pm 13:15 Cloudy 41 4.8 25 -3.7 54 54 WNW 12 19 30.23 1024 10 16 N/A
1:35 pm 13:35 Cloudy with Light Snow 37 3 28 -2.5 67 67 NNW 9 15 30.25 1024 4 6 N/A
1:55 pm 13:55 Cloudy with Light Snow 38 3.4 29 -1.8 69 69 WNW 6 9 30.23 1024 3 4 N/A
2:15 pm 14:15 Cloudy with Light Rain 39 4.1 28 -2.4 63 63 WNW 8 13 30.23 1024 10 16 N/A
2:35 pm 14:35 Cloudy with Light Snow 38 3.3 29 -1.7 70 70 NNW 9 15 30.23 1024 5 8 0.01 0.25
2:55 pm 14:55 Cloudy 40 4.3 28 -2.4 62 62 WNW 21 33 30.24 1024 10 16 0.01 0.25
3:15 pm 15:15 Mostly Cloudy 39 3.9 33 0.5 79 79 WSW 12 19 30.23 1024 10 16 N/A
3:35 pm 15:35 Cloudy 37 2.6 32 0.1 84 84 N 17 28 30.25 1024 10 16 N/A
3:55 pm 15:55 Cloudy 38 3.3 32 0.2 80 80 N 6 9 30.24 1024 10 16 N/A
4:15 pm 16:15 Cloudy 38 3.6 31 -0.4 75 75 NNW 10 17 30.22 1023 10 16 N/A
4:35 pm 16:35 Mostly Cloudy 43 5.9 27 -2.6 55 55 NNW 17 28 30.19 1022 10 16 N/A
4:55 pm 16:55 Mostly Cloudy 42 5.7 28 -2.1 58 58 NNW 17 28 30.19 1022 10 16 N/A
5:15 pm 17:15 Mostly Cloudy 40 4.6 30 -0.9 68 68 NNW 21 33 30.20 1023 10 16 N/A
5:35 pm 17:35 Partly Cloudy 43 6.2 29 -1.9 56 56 NW 20 31 30.19 1022 10 16 N/A
5:55 pm 17:55 Mostly Cloudy 41 5.2 27 -2.8 57 57 NW 14 22 30.20 1023 10 16 N/A
6:15 pm 18:15 Cloudy 42 5.6 25 -4 50 50 NW 17 28 30.20 1023 10 16 N/A
6:35 pm 18:35 Cloudy 42 5.5 24 -4.6 49 49 NNW 21 33 30.21 1023 10 16 N/A
6:55 pm 18:55 Cloudy 41 4.9 24 -4.6 51 51 NNW 15 24 30.22 1023 10 16 N/A
7:15 pm 19:15 Cloudy 41 5 25 -4.1 52 52 NNW 15 24 30.22 1023 10 16 N/A
7:35 pm 19:35 Mostly Cloudy 41 5.1 20 -6.4 44 44 NNW 24 39 30.23 1024 10 16 N/A
7:55 pm 19:55 Sunny 39 3.9 22 -5.5 51 51 NNW 13 20 30.24 1024 10 16 N/A
8:15 pm 20:15 Sunny 38 3.2 22 -5.7 52 52 NNW 16 26 30.26 1025 10 16 N/A
8:35 pm 20:35 Clear 36 2.1 23 -5.2 59 59 NNW 9 15 30.27 1025 10 16 N/A
8:55 pm 20:55 Clear 34 1 24 -4.6 67 67 NNW 9 15 30.28 1025 10 16 N/A
9:15 pm 21:15 Clear 32 0.2 24 -4.4 72 72 N 8 13 30.30 1026 10 16 N/A
9:35 pm 21:35 Clear 32 undefined 24 -4.5 72 72 N 8 13 30.31 1026 10 16 N/A
9:55 pm 21:55 Clear 31 -0.5 25 -3.9 78 78 N 3 6 30.32 1027 10 16 N/A
10:15 pm 22:15 Clear 30 -1 24 -4.7 76 76 NW 5 7 30.34 1027 10 16 N/A
10:35 pm 22:35 Clear 29 -1.9 24 -4.5 83 83 WNW 3 6 30.36 1028 10 16 N/A
10:55 pm 22:55 Clear 28 -2.1 24 -4.5 84 84 W 8 13 30.36 1028 10 16 N/A
11:15 pm 23:15 Clear 29 -1.6 24 -4.6 80 80 WNW 6 9 30.36 1028 10 16 N/A
11:35 pm 23:35 Clear 28 -2.5 23 -5.2 82 82 WNW 7 11 30.37 1029 10 16 N/A
11:55 pm 23:55 Partly Cloudy 29 -1.5 23 -4.8 78 78 WNW 8 13 30.36 1028 10 16 N/A

Powered by AerisWeather